This is the latest recevied weather packets stored in our database for station/object S54A-11. If no packets are shown the sender has not sent any weather packets the latest 10 day(s).
| Time | Temp. | Humidity | Pressure | Rain* | Wind** | Luminosity | Snow |
|---|---|---|---|---|---|---|---|
| 1788354050 | 32.22° C | 32% | 1019.1 hPa | - | - | - | - |
| 1788353150 | 33.33° C | 32% | 1019.4 hPa | - | - | - | - |
| 1788352250 | 33.33° C | 30% | 1019.6 hPa | - | - | - | - |
| 1788351350 | 33.89° C | 31% | 1019.7 hPa | - | - | - | - |
| 1788350449 | 32.22° C | 32% | 1019.8 hPa | - | - | - | - |
| 1788348649 | 32.22° C | 31% | 1020.3 hPa | - | - | - | - |
| 1788347749 | 32.22° C | 35% | 1020.5 hPa | - | - | - | - |
| 1788346849 | 32.78° C | 34% | 1020.6 hPa | - | - | - | - |
| 1788345949 | 31.67° C | 32% | 1020.8 hPa | - | - | - | - |
| 1788345049 | 31.11° C | 35% | 1021 hPa | - | - | - | - |
| 1788344149 | 31.11° C | 36% | 1021.2 hPa | - | - | - | - |
| 1788343249 | 30.56° C | 37% | 1021.4 hPa | - | - | - | - |
| 1788342349 | 30° C | 38% | 1021.6 hPa | - | - | - | - |
| 1788341449 | 29.44° C | 37% | 1021.7 hPa | - | - | - | - |
| 1788340549 | 28.89° C | 38% | 1021.7 hPa | - | - | - | - |
| 1788339649 | 28.89° C | 39% | 1021.8 hPa | - | - | - | - |
| 1788338748 | 28.89° C | 39% | 1021.9 hPa | - | - | - | - |
| 1788337848 | 28.33° C | 40% | 1022 hPa | - | - | - | - |
| 1788336948 | 28.33° C | 40% | 1021.9 hPa | - | - | - | - |
| 1788336048 | 27.22° C | 42% | 1022.1 hPa | - | - | - | - |
| 1788335148 | 27.78° C | 42% | 1022 hPa | - | - | - | - |
| 1788334248 | 27.78° C | 43% | 1022.1 hPa | - | - | - | - |
| 1788333348 | 26.67° C | 44% | 1022.2 hPa | - | - | - | - |
| 1788332448 | 25.56° C | 44% | 1022 hPa | - | - | - | - |
| 1788331548 | 24.44° C | 46% | 1021.9 hPa | - | - | - | - |
* Rain since midnight (hover to see other rain measurements)
** Current wind speed in m/s (hover to see current wind gust speed)